TimeCST,TemperatureF,Dew PointF,Humidity,Sea Level PressureIn,VisibilityMPH,Wind Direction,Wind SpeedMPH,Gust SpeedMPH,PrecipitationIn,Events,Conditions,WindDirDegrees,DateUTC
12:15 AM,22.6,18.5,84,29.85,10.0,West,9.2,-,N/A,,Overcast,280,2012-12-10 06:15:00
12:35 AM,21.9,18.0,85,29.85,10.0,West,12.7,23.0,N/A,,Overcast,280,2012-12-10 06:35:00
12:55 AM,21.6,17.6,85,29.83,10.0,WNW,12.7,23.0,N/A,,Overcast,290,2012-12-10 06:55:00
1:15 AM,21.6,17.6,85,29.84,10.0,West,12.7,19.6,N/A,,Overcast,280,2012-12-10 07:15:00
1:35 AM,22.6,18.9,85,29.83,10.0,WNW,15.0,20.7,N/A,,Overcast,290,2012-12-10 07:35:00
1:55 AM,22.6,19.0,86,29.84,10.0,WNW,15.0,23.0,N/A,,Overcast,290,2012-12-10 07:55:00
2:15 AM,22.6,19.2,87,29.84,10.0,West,13.8,24.2,N/A,,Overcast,280,2012-12-10 08:15:00
2:55 AM,22.6,19.0,86,29.84,10.0,WNW,19.6,26.5,N/A,,Overcast,300,2012-12-10 08:55:00
3:15 AM,22.6,18.7,85,29.85,10.0,NW,15.0,25.3,N/A,,Overcast,310,2012-12-10 09:15:00
3:35 AM,21.9,18.1,85,29.86,10.0,NW,15.0,25.3,N/A,,Overcast,310,2012-12-10 09:35:00
3:55 AM,21.9,17.8,84,29.86,10.0,NW,21.9,26.5,N/A,,Overcast,310,2012-12-10 09:55:00
4:15 AM,21.6,17.6,85,29.87,10.0,WNW,19.6,24.2,N/A,,Overcast,300,2012-12-10 10:15:00
4:35 AM,20.7,16.7,85,29.87,10.0,NW,15.0,23.0,N/A,,Overcast,320,2012-12-10 10:35:00
4:55 AM,19.8,15.4,83,29.87,10.0,NW,18.4,28.8,N/A,,Overcast,310,2012-12-10 10:55:00
5:15 AM,19.0,14.7,83,29.87,10.0,NW,18.4,24.2,N/A,,Overcast,310,2012-12-10 11:15:00
5:35 AM,18.7,14.2,83,29.88,10.0,NW,13.8,26.5,N/A,,Overcast,310,2012-12-10 11:35:00
5:55 AM,17.6,13.1,83,29.88,10.0,NW,16.1,21.9,N/A,,Overcast,310,2012-12-10 11:55:00
6:15 AM,17.6,12.9,82,29.88,10.0,NW,12.7,24.2,N/A,,Overcast,320,2012-12-10 12:15:00
6:35 AM,17.6,12.7,81,29.89,10.0,WNW,16.1,-,N/A,,Overcast,300,2012-12-10 12:35:00
6:55 AM,17.6,13.1,83,29.90,10.0,WNW,11.5,-,N/A,,Overcast,300,2012-12-10 12:55:00
7:15 AM,17.6,12.9,82,29.91,10.0,NW,12.7,19.6,N/A,,Overcast,310,2012-12-10 13:15:00
7:35 AM,17.6,13.1,83,29.92,10.0,WNW,11.5,17.3,N/A,,Overcast,300,2012-12-10 13:35:00
7:55 AM,15.8,10.9,81,29.93,10.0,WNW,12.7,18.4,N/A,,Overcast,300,2012-12-10 13:55:00
8:15 AM,15.8,10.8,80,29.94,10.0,NW,15.0,19.6,N/A,,Overcast,310,2012-12-10 14:15:00
8:35 AM,15.3,10.2,80,29.94,10.0,WNW,13.8,-,N/A,,Overcast,300,2012-12-10 14:35:00
8:55 AM,15.3,10.0,80,29.95,10.0,WNW,17.3,-,N/A,,Mostly Cloudy,300,2012-12-10 14:55:00
9:15 AM,15.4,10.0,79,29.96,10.0,WNW,10.4,18.4,N/A,,Overcast,300,2012-12-10 15:15:00
9:35 AM,15.3,9.5,78,29.96,10.0,WNW,15.0,-,N/A,,Overcast,300,2012-12-10 15:35:00
9:55 AM,15.3,9.5,78,29.96,10.0,WNW,12.7,-,N/A,,Overcast,300,2012-12-10 15:55:00
10:15 AM,15.3,9.5,78,29.96,10.0,NW,13.8,-,N/A,,Overcast,310,2012-12-10 16:15:00
10:35 AM,15.8,9.5,76,29.96,10.0,NW,15.0,18.4,N/A,,Overcast,310,2012-12-10 16:35:00
10:55 AM,17.6,11.7,78,29.97,10.0,WNW,11.5,17.3,N/A,,Overcast,290,2012-12-10 16:55:00
11:15 AM,17.6,11.5,77,29.96,10.0,NW,11.5,17.3,N/A,,Overcast,310,2012-12-10 17:15:00
11:35 AM,17.6,11.7,78,29.96,10.0,WNW,16.1,-,N/A,,Overcast,300,2012-12-10 17:35:00
11:55 AM,17.6,11.8,78,29.95,10.0,WNW,16.1,20.7,N/A,,Overcast,300,2012-12-10 17:55:00
12:15 PM,19.0,13.1,78,29.94,10.0,WNW,15.0,-,N/A,,Overcast,300,2012-12-10 18:15:00
12:35 PM,20.1,14.4,78,29.93,10.0,NW,15.0,19.6,N/A,,Overcast,310,2012-12-10 18:35:00
12:55 PM,20.3,14.5,78,29.93,10.0,WNW,9.2,-,N/A,,Overcast,300,2012-12-10 18:55:00
1:15 PM,20.3,14.2,77,29.93,10.0,WNW,13.8,-,N/A,,Overcast,300,2012-12-10 19:15:00
1:35 PM,21.0,14.5,76,29.93,10.0,WNW,11.5,-,N/A,,Overcast,300,2012-12-10 19:35:00
1:55 PM,21.7,15.1,76,29.92,10.0,WNW,9.2,-,N/A,,Overcast,300,2012-12-10 19:55:00
2:15 PM,22.6,15.8,75,29.92,10.0,WNW,11.5,-,N/A,,Overcast,290,2012-12-10 20:15:00
2:35 PM,22.6,16.3,77,29.92,10.0,WNW,10.4,-,N/A,,Overcast,290,2012-12-10 20:35:00
2:55 PM,21.6,15.4,77,29.92,10.0,WNW,10.4,-,N/A,,Overcast,300,2012-12-10 20:55:00
3:15 PM,21.7,15.6,77,29.92,10.0,WNW,11.5,-,N/A,,Overcast,290,2012-12-10 21:15:00
3:35 PM,22.5,16.2,77,29.93,10.0,WNW,11.5,-,N/A,,Overcast,290,2012-12-10 21:35:00
3:55 PM,22.6,15.3,73,29.93,10.0,WNW,9.2,-,N/A,,Overcast,290,2012-12-10 21:55:00
4:15 PM,20.7,14.2,76,29.94,10.0,WNW,6.9,-,N/A,,Mostly Cloudy,300,2012-12-10 22:15:00
4:35 PM,19.4,14.0,80,29.94,10.0,WNW,3.5,-,N/A,,Scattered Clouds,290,2012-12-10 22:35:00
4:55 PM,18.9,13.8,81,29.95,10.0,West,3.5,-,N/A,,Clear,280,2012-12-10 22:55:00
5:15 PM,18.3,13.8,83,29.95,10.0,WNW,3.5,-,N/A,,Clear,300,2012-12-10 23:15:00
5:35 PM,17.6,13.3,83,29.95,10.0,WNW,4.6,-,N/A,,Clear,290,2012-12-10 23:35:00
5:55 PM,17.8,14.0,85,29.96,10.0,Calm,Calm,-,N/A,,Scattered Clouds,0,2012-12-10 23:55:00
6:15 PM,17.6,14.0,86,29.96,10.0,Calm,Calm,-,N/A,,Clear,0,2012-12-11 00:15:00
6:35 PM,17.6,14.4,87,29.97,10.0,Calm,Calm,-,N/A,,Clear,0,2012-12-11 00:35:00
6:55 PM,17.6,14.7,88,29.97,10.0,Calm,Calm,-,N/A,,Clear,0,2012-12-11 00:55:00
7:15 PM,17.6,14.0,86,29.97,10.0,Calm,Calm,-,N/A,,Clear,0,2012-12-11 01:15:00
7:35 PM,17.6,14.0,86,29.97,10.0,Calm,Calm,-,N/A,,Clear,0,2012-12-11 01:35:00
7:55 PM,16.5,12.7,85,29.97,10.0,Calm,Calm,-,N/A,,Clear,0,2012-12-11 01:55:00
8:15 PM,14.4,11.5,88,29.97,10.0,South,3.5,-,N/A,,Clear,180,2012-12-11 02:15:00
8:35 PM,14.4,11.7,89,29.98,10.0,SW,4.6,-,N/A,,Clear,230,2012-12-11 02:35:00
8:55 PM,15.3,12.9,90,29.97,10.0,Calm,Calm,-,N/A,,Clear,0,2012-12-11 02:55:00
9:15 PM,15.3,12.6,89,29.97,10.0,Calm,Calm,-,N/A,,Clear,0,2012-12-11 03:15:00
9:35 PM,14.0,11.3,89,29.96,10.0,Calm,Calm,-,N/A,,Clear,0,2012-12-11 03:35:00
9:55 PM,12.7,9.9,88,29.98,10.0,SSW,3.5,-,N/A,,Clear,200,2012-12-11 03:55:00
10:15 PM,12.7,10.2,90,29.97,10.0,South,3.5,-,N/A,,Clear,180,2012-12-11 04:15:00
10:35 PM,12.7,9.9,88,29.97,10.0,Calm,Calm,-,N/A,,Clear,0,2012-12-11 04:35:00
10:55 PM,12.7,9.9,88,29.97,10.0,South,3.5,-,N/A,,Clear,180,2012-12-11 04:55:00
11:15 PM,12.7,9.7,88,29.97,10.0,South,3.5,-,N/A,,Clear,180,2012-12-11 05:15:00
11:35 PM,12.7,9.5,87,29.97,10.0,South,3.5,-,N/A,,Clear,190,2012-12-11 05:35:00
11:55 PM,12.7,9.9,88,29.97,10.0,South,3.5,-,N/A,,Clear,190,2012-12-11 05:55:00